TimeEDT,TemperatureF,Dew PointF,Humidity,Sea Level PressureIn,VisibilityMPH,Wind Direction,Wind SpeedMPH,Gust SpeedMPH,PrecipitationIn,Events,Conditions,WindDirDegrees,DateUTC
12:19 AM,75.2,73.4,94,29.98,5.0,East,13.8,23.0,0.07,Rain,Light Rain,100,2012-10-15 04:19:00
12:26 AM,75.2,73.4,94,29.98,3.0,ESE,13.8,19.6,0.09,Rain,Heavy Rain,120,2012-10-15 04:26:00
12:39 AM,75.2,73.4,94,29.97,2.5,ESE,21.9,29.9,0.20,Rain,Heavy Rain,120,2012-10-15 04:39:00
12:48 AM,75.2,73.4,94,29.97,1.2,East,17.3,21.9,0.40,Rain,Heavy Rain,100,2012-10-15 04:48:00
12:53 AM,75.0,73.9,96,29.97,1.5,East,11.5,21.9,0.54,Rain,Heavy Rain,90,2012-10-15 04:53:00
1:02 AM,75.2,73.4,94,29.96,3.0,ESE,6.9,-,0.04,Rain,Rain,110,2012-10-15 05:02:00
1:14 AM,75.2,73.4,94,29.96,6.0,East,4.6,-,0.05,Rain,Light Rain,100,2012-10-15 05:14:00
1:53 AM,77.0,73.9,90,29.96,7.0,ESE,6.9,-,0.07,Rain,Rain,110,2012-10-15 05:53:00
2:53 AM,78.1,73.9,87,29.93,10.0,East,8.1,-,0.01,,Overcast,80,2012-10-15 06:53:00
3:06 AM,77.0,73.4,89,29.93,9.0,SSE,10.4,-,N/A,,Overcast,160,2012-10-15 07:06:00
3:49 AM,75.2,73.4,94,29.91,9.0,Calm,Calm,-,N/A,,Overcast,0,2012-10-15 07:49:00
3:53 AM,75.0,73.0,94,29.91,9.0,Calm,Calm,-,N/A,,Overcast,0,2012-10-15 07:53:00
4:13 AM,75.2,73.4,94,29.90,9.0,South,4.6,-,N/A,,Overcast,180,2012-10-15 08:13:00
4:21 AM,75.2,73.4,94,29.89,9.0,Calm,Calm,-,0.00,Rain,Light Rain,0,2012-10-15 08:21:00
4:53 AM,73.9,73.0,97,29.90,8.0,West,3.5,-,0.00,,Mostly Cloudy,280,2012-10-15 08:53:00
5:01 AM,75.2,73.4,94,29.90,8.0,Calm,Calm,-,N/A,,Mostly Cloudy,0,2012-10-15 09:01:00
5:30 AM,75.2,73.4,94,29.90,10.0,ENE,3.5,-,N/A,,Overcast,60,2012-10-15 09:30:00
5:53 AM,77.0,72.0,84,29.90,10.0,East,4.6,-,N/A,,Overcast,90,2012-10-15 09:53:00
6:53 AM,75.9,72.0,87,29.91,10.0,ENE,4.6,-,N/A,,Scattered Clouds,70,2012-10-15 10:53:00
7:53 AM,77.0,73.0,88,29.90,10.0,East,3.5,-,N/A,,Scattered Clouds,80,2012-10-15 11:53:00
8:53 AM,81.0,73.0,77,29.92,10.0,NE,3.5,-,N/A,,Scattered Clouds,40,2012-10-15 12:53:00
9:53 AM,82.9,72.0,69,29.93,10.0,ENE,4.6,-,N/A,,Partly Cloudy,60,2012-10-15 13:53:00
10:53 AM,82.9,72.0,69,29.93,10.0,East,6.9,-,N/A,,Scattered Clouds,90,2012-10-15 14:53:00
11:53 AM,82.9,71.1,67,29.93,10.0,ENE,9.2,-,N/A,,Clear,70,2012-10-15 15:53:00
12:53 PM,84.0,72.0,67,29.91,10.0,NNE,11.5,-,N/A,,Partly Cloudy,20,2012-10-15 16:53:00
1:53 PM,84.0,71.1,65,29.88,10.0,Variable,4.6,-,N/A,,Partly Cloudy,0,2012-10-15 17:53:00
2:53 PM,84.9,71.1,63,29.85,10.0,NNE,5.8,-,N/A,,Clear,30,2012-10-15 18:53:00
3:53 PM,84.9,71.1,63,29.84,10.0,NE,9.2,-,N/A,,Partly Cloudy,40,2012-10-15 19:53:00
4:53 PM,84.0,71.1,65,29.83,10.0,NE,8.1,-,N/A,,Clear,40,2012-10-15 20:53:00
5:53 PM,81.0,71.1,72,29.83,10.0,NNE,4.6,-,N/A,,Scattered Clouds,30,2012-10-15 21:53:00
6:53 PM,79.0,71.1,77,29.81,10.0,NE,3.5,-,N/A,,Clear,50,2012-10-15 22:53:00
7:53 PM,77.0,72.0,84,29.82,10.0,Calm,Calm,-,N/A,,Clear,0,2012-10-15 23:53:00
8:53 PM,75.9,71.1,85,29.83,10.0,Calm,Calm,-,N/A,,Clear,0,2012-10-16 00:53:00
9:53 PM,75.0,72.0,90,29.84,10.0,Calm,Calm,-,N/A,,Clear,0,2012-10-16 01:53:00
10:53 PM,73.0,71.1,93,29.84,10.0,Calm,Calm,-,N/A,,Clear,0,2012-10-16 02:53:00
11:53 PM,73.0,71.1,93,29.86,10.0,Calm,Calm,-,N/A,,Clear,0,2012-10-16 03:53:00